Demopolis Municipal Airport, AL

6:03 AM CDT on September 16, 2019 (GMT -0500)
Demopolis Municipal Airport

Weather History for KDYA - July, 2019

Change the Weather History Date:

Monday, July 29, 2019

  Actual Average (WUND) Record (WUND)
Temperature  
Mean Temperature 80 °F -  
Max Temperature 92 °F - - (-1)
Min Temperature 68 °F - - (-1)
Cooling Degree Days 15    
Growing Degree Days 30 (Base 50)    
Moisture  
Dew Point 65 °F    
Average Humidity 57    
Maximum Humidity 100    
Minimum Humidity 33    
Precipitation  
Precipitation 0.00 in - - ()
Sea Level Pressure  
Sea Level Pressure 30.04 in    
Wind  
Wind Speed 1 mph ()    
Max Wind Speed 7 mph    
Max Gust Speed -    
Visibility 7.9 miles    
Events      
Averages and records for this station are not official NWS values.
T = Trace of Precipitation, MM = Missing Value Source: Averaged Metar Reports

Daily Weather History Graph

Daily Weather History Graph

Search for Another Location

Airport or City:

Astronomy

Jul. 29, 2019 Rise Set
Actual Time 6:04 AM CDT 7:52 PM CDT
Civil Twilight 5:37 AM CDT 8:18 PM CDT
Nautical Twilight 5:04 AM CDT 8:51 PM CDT
Astronomical Twilight 4:29 AM CDT 9:25 PM CDT
Moon 3:18 AM CDT (7/29) 5:51 PM CDT (7/29)
Length of Visible Light 14h 41m
Length of Day
13h 47m
Waning Crescent, 8% of the Moon is Illuminated
Jul 29
Waning Crescent
Jul 31
New
Aug 7
First Quarter
Aug 15
Full
Aug 23
Last Quarter

Hourly Weather History & Observations

Time (CDT) Temp. Heat Index Dew Point Humidity Pressure Visibility Wind Dir Wind Speed Gust Speed Precip Events Conditions
7:35 AM 68.7 °F - 68.7 °F 100% 30.09 in 5.0 mi Calm Calm - N/A   Clear
7:55 AM 70.9 °F - 67.5 °F 89% 30.10 in 7.0 mi Calm Calm - N/A   Clear
8:15 AM 73.4 °F - 66.2 °F 78% 30.10 in 7.0 mi Calm Calm - N/A   Clear
8:35 AM 75.6 °F - 67.5 °F 76% 30.10 in 10.0 mi Calm Calm - N/A   Clear
8:55 AM 77.4 °F - 67.8 °F 72% 30.10 in 7.0 mi Calm Calm - N/A   Clear
9:15 AM 79.5 °F - 68.2 °F 68% 30.10 in 7.0 mi Calm Calm - N/A   Clear
9:35 AM 81.0 °F 83.9 °F 68.5 °F 66% 30.10 in 7.0 mi Calm Calm - N/A   Clear
9:55 AM 82.4 °F 85.8 °F 69.3 °F 64% 30.10 in 7.0 mi Calm Calm - N/A   Clear
10:15 AM 84.2 °F 88.1 °F 69.6 °F 61% 30.10 in 10.0 mi WNW 3.5 mph - N/A   Clear
10:35 AM 84.9 °F 88.8 °F 68.9 °F 59% 30.11 in 7.0 mi NW 3.5 mph - N/A   Clear
10:55 AM 86.5 °F 90.0 °F 68.4 °F 54% 30.11 in 10.0 mi NNW 3.5 mph - N/A   Clear
11:15 AM 87.4 °F 89.8 °F 66.4 °F 49% 30.10 in 7.0 mi Calm Calm - N/A   Clear
11:35 AM 88.5 °F 90.8 °F 66.0 °F 47% 30.10 in 7.0 mi WNW 4.6 mph - N/A   Clear
11:55 AM 89.1 °F 90.3 °F 63.7 °F 43% 30.09 in 7.0 mi West 3.5 mph - N/A   Clear
12:15 PM 87.4 °F 88.2 °F 63.1 °F 44% 30.09 in 7.0 mi Calm Calm - N/A   Clear
12:35 PM 88.3 °F 88.6 °F 62.1 °F 41% 30.09 in 7.0 mi North 4.6 mph - N/A   Mostly Cloudy
12:55 PM 90.0 °F 90.3 °F 62.2 °F 39% 30.08 in 10.0 mi Calm Calm - N/A   Mostly Cloudy
1:15 PM 89.2 °F 89.0 °F 60.6 °F 38% 30.07 in 7.0 mi SSW 4.6 mph - N/A   Scattered Clouds
1:35 PM 88.5 °F 89.5 °F 63.3 °F 43% 30.07 in 7.0 mi SSW 6.9 mph - N/A   Scattered Clouds
1:55 PM 88.2 °F 88.1 °F 61.3 °F 40% 30.06 in 10.0 mi Calm Calm - N/A   Mostly Cloudy
2:15 PM 88.7 °F 89.8 °F 63.3 °F 43% 30.06 in 10.0 mi Calm Calm - N/A   Scattered Clouds
2:35 PM 91.6 °F 92.0 °F 62.2 °F 37% 30.05 in 10.0 mi Calm Calm - N/A   Scattered Clouds
2:55 PM 89.8 °F 89.7 °F 61.3 °F 38% 30.04 in 10.0 mi Calm Calm - N/A   Mostly Cloudy
3:15 PM 90.1 °F 89.6 °F 59.7 °F 36% 30.03 in 7.0 mi Calm Calm - N/A   Scattered Clouds
3:35 PM 92.8 °F 92.8 °F 60.6 °F 34% 30.02 in 7.0 mi ESE 3.5 mph - N/A   Mostly Cloudy
3:55 PM 91.8 °F 92.2 °F 61.7 °F 37% 30.01 in 7.0 mi Calm Calm - N/A   Overcast
4:15 PM 91.4 °F 91.0 °F 60.1 °F 35% 30.00 in 10.0 mi Calm Calm - N/A   Overcast
4:35 PM 90.9 °F 91.3 °F 62.2 °F 38% 30.00 in 10.0 mi Calm Calm - N/A   Mostly Cloudy
4:55 PM 91.9 °F 91.2 °F 59.2 °F 33% 29.99 in 5.0 mi Calm Calm - N/A   Haze
5:35 PM 92.5 °F 92.2 °F 60.3 °F 34% 29.98 in 10.0 mi Calm Calm - N/A   Mostly Cloudy
5:55 PM 91.8 °F 91.2 °F 60.1 °F 34% 29.97 in 7.0 mi SW 5.8 mph - N/A   Scattered Clouds
6:15 PM 91.2 °F 90.8 °F 59.7 °F 35% 29.98 in 7.0 mi SW 3.5 mph - N/A   Clear
6:35 PM 89.6 °F 89.8 °F 61.3 °F 39% 29.98 in 10.0 mi SW 5.8 mph - N/A   Clear
6:55 PM 89.6 °F 90.1 °F 62.4 °F 40% 29.98 in 5.0 mi South 4.6 mph - N/A   Haze
7:15 PM 88.3 °F 89.5 °F 63.9 °F 44% 29.99 in 7.0 mi Calm Calm - N/A   Clear
7:35 PM 86.5 °F 87.8 °F 64.4 °F 47% 29.99 in 7.0 mi Calm Calm - N/A   Clear
7:55 PM 81.0 °F 84.1 °F 68.9 °F 67% 29.99 in 10.0 mi Calm Calm - N/A   Clear
8:15 PM 77.7 °F - 68.2 °F 72% 29.99 in 10.0 mi Calm Calm - N/A   Clear
8:35 PM 76.8 °F - 68.4 °F 75% 30.00 in 10.0 mi Calm Calm - N/A   Clear
8:55 PM 75.4 °F - 68.4 °F 79% 30.00 in 10.0 mi Calm Calm - N/A   Clear
9:15 PM 75.2 °F - 68.9 °F 81% 30.00 in 7.0 mi Calm Calm - N/A   Clear
9:35 PM 74.3 °F - 68.9 °F 83% 30.00 in 10.0 mi Calm Calm - N/A   Clear
9:55 PM 73.6 °F - 68.9 °F 85% 30.01 in 7.0 mi Calm Calm - N/A   Clear
10:15 PM 73.4 °F - 68.9 °F 86% 30.02 in 7.0 mi Calm Calm - N/A   Clear
10:35 PM 72.0 °F - 68.2 °F 88% 30.02 in 7.0 mi Calm Calm - N/A   Clear
10:55 PM 72.5 °F - 68.9 °F 88% 30.03 in 7.0 mi Calm Calm - N/A   Clear
11:35 PM 71.6 °F - 68.7 °F 91% 30.03 in 7.0 mi Calm Calm - N/A   Clear
11:55 PM 72.5 °F - 68.9 °F 88% 30.03 in 7.0 mi Calm Calm - N/A   Clear